Volver al catálogo

CZ-4 DEB

ActivoSSO
NORAD 20849·DEBRIS·🇨🇳 China

Lanzado Sep 3, 1990 desde Taiyuan Satellite Launch Center

Loading…

Próximos Pases (próximas 24 horas)

TLE

ActualizadoSource: Space-Track

Época: Sep 14, 2026, 09:06 UTC

1 20849U 90081M   26257.37974176  .00000522  00000-0  26836-3 0  9994
2 20849  98.6867 235.7628 0037920 200.2083 159.7594 14.19154859848623

Sigue CZ-4 DEB en tiempo real con AllMySat

Download on the App Store